Hourly Weather Holodolina

Today, 11 April, Sunday

Time Temperature Precipitation Wind Pressure Humidity
00:00 +9°C° 0.2 mm 1 mps 748 mmHg 89%
01:00 +9°C° 0.2 mm 1 mps 748 mmHg 90%
02:00 +9°C° 0 mm 1 mps 748 mmHg 90%
03:00 +9°C° 0.1 mm 1 mps 748 mmHg 89%
04:00 +9°C° 0.1 mm 1 mps 748 mmHg 88%
05:00 +9°C° 0.1 mm 1 mps 749 mmHg 87%
06:00 +9°C° 0 mm 1 mps 749 mmHg 84%
07:00 +10°C° 0 mm 1 mps 749 mmHg 80%
08:00 +10°C° 0 mm 1 mps 749 mmHg 77%
09:00 +12°C° 0 mm 2 mps 749 mmHg 70%
10:00 +13°C° 0 mm 3 mps 749 mmHg 64%
11:00 +14°C° 0 mm 4 mps 750 mmHg 57%
12:00 +15°C° 0 mm 5 mps 749 mmHg 52%
13:00 +16°C° 0 mm 6 mps 749 mmHg 47%
14:00 +17°C° 0 mm 7 mps 749 mmHg 42%
15:00 +17°C° 0 mm 6 mps 749 mmHg 43%
16:00 +16°C° 0 mm 6 mps 749 mmHg 44%
17:00 +16°C° 0 mm 6 mps 749 mmHg 46%
18:00 +15°C° 0 mm 6 mps 749 mmHg 48%
19:00 +14°C° 0 mm 6 mps 749 mmHg 51%
20:00 +13°C° 0 mm 6 mps 749 mmHg 54%
21:00 +11°C° 0 mm 6 mps 749 mmHg 54%
22:00 +11°C° 0 mm 6 mps 749 mmHg 54%
23:00 +10°C° 0 mm 6 mps 750 mmHg 54%

Tomorrow, 12 April, Monday

Time Temperature Precipitation Wind Pressure Humidity
00:00 +10°C° 0 mm 6 mps 749 mmHg 54%
01:00 +9°C° 0 mm 6 mps 749 mmHg 55%
02:00 +9°C° 0 mm 6 mps 749 mmHg 56%
03:00 +8°C° 0 mm 5 mps 749 mmHg 57%
04:00 +8°C° 0 mm 5 mps 749 mmHg 58%
05:00 +7°C° 0 mm 5 mps 749 mmHg 59%
06:00 +8°C° 0 mm 5 mps 749 mmHg 59%
07:00 +8°C° 0 mm 5 mps 749 mmHg 59%
08:00 +8°C° 0 mm 5 mps 749 mmHg 59%
09:00 +8°C° 0 mm 5 mps 749 mmHg 61%
10:00 +9°C° 0 mm 5 mps 749 mmHg 62%
11:00 +9°C° 0 mm 5 mps 749 mmHg 64%
12:00 +9°C° 0 mm 5 mps 749 mmHg 64%
13:00 +10°C° 0 mm 5 mps 749 mmHg 63%
14:00 +12°C° 0 mm 5 mps 748 mmHg 63%
15:00 +12°C° 0 mm 4 mps 748 mmHg 64%
16:00 +12°C° 0 mm 4 mps 748 mmHg 65%
17:00 +12°C° 0 mm 4 mps 748 mmHg 66%
18:00 +11°C° 0.2 mm 3 mps 748 mmHg 72%
19:00 +11°C° 0.2 mm 3 mps 748 mmHg 79%
20:00 +10°C° 0.2 mm 3 mps 748 mmHg 85%
21:00 +10°C° 0.3 mm 3 mps 748 mmHg 88%
22:00 +9°C° 0.3 mm 3 mps 748 mmHg 90%
23:00 +9°C° 0.3 mm 3 mps 748 mmHg 93%

Day after tomorrow, 13 April, Tuesday

Time Temperature Precipitation Wind Pressure Humidity
00:00 +7°C° 0.1 mm 4 mps 748 mmHg 92%
01:00 +5°C° 0.1 mm 4 mps 749 mmHg 91%
02:00 +3°C° 0.1 mm 5 mps 749 mmHg 91%
03:00 +3°C° 0 mm 5 mps 749 mmHg 90%
04:00 +3°C° 0 mm 4 mps 750 mmHg 89%
05:00 +3°C° 0 mm 4 mps 750 mmHg 88%
06:00 +3°C° 0 mm 4 mps 750 mmHg 87%
07:00 +3°C° 0 mm 4 mps 751 mmHg 85%
08:00 +3°C° 0 mm 4 mps 751 mmHg 84%
09:00 +3°C° 0 mm 4 mps 751 mmHg 82%
10:00 +2°C° 0 mm 5 mps 751 mmHg 79%
11:00 +3°C° 0 mm 5 mps 752 mmHg 77%
12:00 +3°C° 0 mm 5 mps 752 mmHg 75%
13:00 +3°C° 0 mm 5 mps 752 mmHg 72%
14:00 +4°C° 0 mm 4 mps 752 mmHg 69%
15:00 +4°C° 0 mm 4 mps 752 mmHg 68%
16:00 +4°C° 0 mm 4 mps 752 mmHg 66%
17:00 +4°C° 0 mm 4 mps 752 mmHg 65%
18:00 +4°C° 0 mm 4 mps 752 mmHg 64%
19:00 +4°C° 0 mm 4 mps 752 mmHg 63%
20:00 +4°C° 0 mm 4 mps 752 mmHg 62%
21:00 +3°C° 0.1 mm 4 mps 752 mmHg 67%
22:00 +3°C° 0.1 mm 4 mps 752 mmHg 71%
23:00 +1°C° 0.1 mm 5 mps 751 mmHg 76%

14 April, Wednesday

Time Temperature Precipitation Wind Pressure Humidity
00:00 +1°C° 0.3 mm 5 mps 751 mmHg 80%
01:00 0°C° 0.3 mm 5 mps 751 mmHg 84%
02:00 0°C° 0.3 mm 5 mps 751 mmHg 88%
03:00 0°C° 0.2 mm 5 mps 751 mmHg 88%
04:00 0°C° 0.2 mm 5 mps 750 mmHg 88%
05:00 0°C° 0.2 mm 5 mps 750 mmHg 88%
06:00 0°C° 0.3 mm 5 mps 750 mmHg 90%
07:00 -1°C° 0.3 mm 6 mps 750 mmHg 91%
08:00 -1°C° 0.3 mm 6 mps 750 mmHg 92%
09:00 -1°C° 0.3 mm 6 mps 750 mmHg 93%
10:00 -1°C° 0.3 mm 6 mps 750 mmHg 93%
11:00 -1°C° 0.3 mm 7 mps 750 mmHg 93%
12:00 -1°C° 0.2 mm 7 mps 750 mmHg 92%
13:00 0°C° 0.2 mm 7 mps 749 mmHg 92%
14:00 0°C° 0.2 mm 7 mps 749 mmHg 91%
15:00 0°C° 0.5 mm 7 mps 749 mmHg 92%
16:00 0°C° 0.5 mm 7 mps 749 mmHg 92%
17:00 0°C° 0.5 mm 7 mps 749 mmHg 93%
18:00 0°C° 0.8 mm 7 mps 749 mmHg 94%
19:00 0°C° 0.8 mm 7 mps 749 mmHg 95%
20:00 0°C° 0.8 mm 7 mps 749 mmHg 96%
21:00 -1°C° 0.4 mm 7 mps 749 mmHg 96%
22:00 -1°C° 0.4 mm 7 mps 748 mmHg 96%
23:00 -1°C° 0.4 mm 7 mps 748 mmHg 96%

15 April, Thursday

Time Temperature Precipitation Wind Pressure Humidity
00:00 -1°C° 0.3 mm 7 mps 748 mmHg 96%
01:00 -1°C° 0.3 mm 7 mps 748 mmHg 96%
02:00 -1°C° 0.3 mm 7 mps 748 mmHg 96%
03:00 -1°C° 0.2 mm 6 mps 748 mmHg 96%
04:00 -1°C° 0.2 mm 6 mps 748 mmHg 96%
05:00 -1°C° 0.2 mm 6 mps 748 mmHg 96%
06:00 -1°C° 0.1 mm 6 mps 748 mmHg 96%
07:00 +1°C° 0.1 mm 6 mps 749 mmHg 96%
08:00 +1°C° 0.1 mm 6 mps 749 mmHg 95%
09:00 +1°C° 0.1 mm 6 mps 749 mmHg 95%
10:00 +1°C° 0.1 mm 6 mps 749 mmHg 94%
11:00 +1°C° 0.1 mm 6 mps 750 mmHg 93%
12:00 +1°C° 0 mm 6 mps 750 mmHg 90%
13:00 +2°C° 0 mm 6 mps 750 mmHg 86%
14:00 +2°C° 0 mm 6 mps 750 mmHg 83%
15:00 +3°C° 0 mm 6 mps 750 mmHg 82%
16:00 +3°C° 0 mm 6 mps 750 mmHg 82%
17:00 +4°C° 0 mm 6 mps 750 mmHg 81%
18:00 +3°C° 0 mm 6 mps 750 mmHg 81%
19:00 +3°C° 0 mm 6 mps 751 mmHg 80%
20:00 +3°C° 0 mm 6 mps 751 mmHg 80%
21:00 +3°C° 0 mm 6 mps 751 mmHg 78%
22:00 +3°C° 0 mm 6 mps 751 mmHg 76%
23:00 +2°C° 0 mm 6 mps 751 mmHg 74%

16 April, Friday

Time Temperature Precipitation Wind Pressure Humidity
00:00 +2°C° 0 mm 6 mps 751 mmHg 75%
01:00 +2°C° 0 mm 6 mps 751 mmHg 77%
02:00 +2°C° 0 mm 6 mps 751 mmHg 78%
03:00 +2°C° 0 mm 6 mps 751 mmHg 79%
04:00 +2°C° 0 mm 6 mps 751 mmHg 79%
05:00 +1°C° 0 mm 6 mps 751 mmHg 79%
06:00 +1°C° 0.1 mm 6 mps 752 mmHg 80%
07:00 +1°C° 0.1 mm 6 mps 752 mmHg 81%
08:00 +1°C° 0.1 mm 6 mps 752 mmHg 82%
09:00 +2°C° 0 mm 6 mps 753 mmHg 80%
10:00 +2°C° 0 mm 6 mps 753 mmHg 78%
11:00 +3°C° 0 mm 6 mps 754 mmHg 76%
12:00 +3°C° 0 mm 6 mps 754 mmHg 72%
13:00 +4°C° 0 mm 6 mps 754 mmHg 68%
14:00 +5°C° 0 mm 6 mps 754 mmHg 64%
15:00 +7°C° 0 mm 5 mps 754 mmHg 62%
16:00 +8°C° 0 mm 5 mps 754 mmHg 59%
17:00 +9°C° 0 mm 5 mps 754 mmHg 57%
18:00 +8°C° 0 mm 5 mps 755 mmHg 58%
19:00 +7°C° 0 mm 5 mps 755 mmHg 59%
20:00 +6°C° 0 mm 4 mps 756 mmHg 60%
21:00 +5°C° 0 mm 4 mps 756 mmHg 63%
22:00 +5°C° 0 mm 4 mps 756 mmHg 66%
23:00 +4°C° 0 mm 4 mps 757 mmHg 69%
Show more